HK6RM-16 Weather Reports


time (UTC)temp
C
wind
direction
speed
KPH
gust
KPH
rain 1hr
cm
rain 24hr
cm
rain mn
cm
humidity
%
barometer
mb
20260507165006 19 300 9.7 0.0 0.00 0.00 0.00 75 1014.0
20260507163406 20 300 9.7 0.0 0.00 0.00 0.00 75 1015.0
20260507161806 20 300 9.7 0.0 0.00 0.00 0.00 75 1015.0
20260507160205 17 290 9.7 0.0 0.00 0.00 0.00 82 1015.0
20260507154604 18 290 9.7 0.0 0.00 0.00 0.00 82 1015.0
20260507153004 17 290 9.7 0.0 0.00 0.00 0.00 75 1016.0
20260507151403 17 290 9.7 0.0 0.00 0.00 0.00 72 1016.0
20260507145802 17 290 9.7 0.0 0.00 0.00 0.00 70 1016.0
20260507144202 17 290 9.7 0.0 0.00 0.00 0.00 70 1016.0
20260507142601 17 290 9.7 0.0 0.00 0.00 0.00 70 1017.0
20260507141000 17 290 9.7 0.0 0.00 0.00 0.00 69 1017.0
20260507135358 18 0 3.2 0.0 0.00 0.00 0.00 68 1017.0
20260507133757 18 0 3.2 0.0 0.00 0.00 0.00 68 1017.0
20260507132157 13 306 3.2 1.6 0.00 0.00 0.00 73 1017.0
20260507130556 13 306 1.6 1.6 0.00 0.00 0.00 73 1017.0
20260507124955 14 306 3.2 1.6 0.00 0.00 0.00 73 1017.0
20260507123354 12 90 6.4 0.0 0.00 0.00 0.00 82 1017.0
20260507121754 12 90 6.4 0.0 0.00 0.00 0.00 82 1017.0
20260507120153 13 90 6.4 0.0 0.00 0.00 0.00 82 1017.0
20260507114553 13 90 6.4 0.0 0.00 0.00 0.00 82 1017.0
20260507112951 8 105 8.0 4.8 0.00 0.00 0.00 76 1017.0
20260507111351 8 105 8.0 4.8 0.00 0.00 0.00 75 1017.0
20260507105750 9 105 8.0 4.8 0.00 0.00 0.00 75 1017.0
20260507104149 8 105 8.0 4.8 0.00 0.00 0.00 75 1017.0
20260507102545 9 105 8.0 4.8 0.00 0.00 0.00 75 1017.0
20260507100944 8 105 8.0 4.8 0.00 0.00 0.00 75 1017.0
20260507095344 9 105 8.0 4.8 0.00 0.00 0.00 75 1017.0
20260507093738 8 110 8.0 4.8 0.00 0.00 0.00 75 1017.0
20260507092138 9 110 8.0 4.8 0.00 0.00 0.00 75 1017.0
20260507090537 8 110 8.0 4.8 0.00 0.00 0.00 75 1017.0
20260507084937 9 110 8.0 4.8 0.00 0.00 0.00 75 1017.0
20260507083336 8 108 8.0 4.8 0.00 0.00 0.00 75 1017.0
20260507081736 9 108 8.0 4.8 0.00 0.00 0.00 75 1017.0
20260507080135 8 107 8.0 4.8 0.00 0.00 0.00 76 1017.0
20260507074535 8 107 8.0 4.8 0.00 0.00 0.00 76 1017.0
20260507072933 9 107 8.0 4.8 0.00 0.00 0.00 76 1017.0
20260507071331 9 107 8.0 4.8 0.00 0.00 0.00 76 1017.0
20260507065728 9 107 8.0 4.8 0.00 0.00 0.00 76 1017.0
20260507064124 9 107 8.0 4.8 0.00 0.00 0.00 76 1017.0
20260507062523 9 107 8.0 4.8 0.00 0.00 0.00 76 1018.0
20260507060921 9 107 8.0 4.8 0.00 0.00 0.00 76 1018.0
20260507055320 9 107 8.0 4.8 0.00 0.00 0.00 76 1018.0
20260507053719 9 107 8.0 4.8 0.00 0.00 0.00 74 1018.0
20260507052119 10 107 8.0 4.8 0.00 0.00 0.00 74 1018.0
20260507050518 10 107 8.0 4.8 0.00 0.00 0.00 74 1018.0
20260507044917 10 107 8.0 4.8 0.00 0.00 0.00 74 1018.0
20260507043316 10 107 8.0 4.8 0.00 0.00 0.00 74 1018.0
20260507041715 9 111 11.3 6.4 0.00 0.00 0.00 74 1018.0
20260507040114 9 111 11.3 6.4 0.00 0.00 0.00 74 1018.0
20260507034514 10 111 11.3 6.4 0.00 0.00 0.00 74 1018.0
20260507032912 10 111 11.3 6.4 0.00 0.00 0.00 74 1018.0
20260507031311 11 111 11.3 6.4 0.00 0.00 0.00 74 1018.0
20260507025710 11 111 11.3 6.4 0.00 0.00 0.00 74 1018.0
20260507024109 12 111 11.3 6.4 0.00 0.00 0.00 74 1018.0
20260507022508 12 111 11.3 6.4 0.00 0.00 0.00 74 1017.0
20260507020907 10 280 12.9 0.0 0.00 0.00 0.00 70 1017.0
20260507015306 10 280 12.9 0.0 0.00 0.00 0.00 70 1017.0
20260507013704 10 280 12.9 0.0 0.00 0.00 0.00 70 1017.0
20260507012104 10 280 12.9 0.0 0.00 0.00 0.00 70 1016.0
20260507010503 10 280 12.9 0.0 0.00 0.00 0.00 70 1016.0
20260507004902 10 280 12.9 0.0 0.00 0.00 0.00 70 1016.0
20260507003301 11 280 12.9 0.0 0.00 0.00 0.00 70 1016.0
20260507001701 11 280 12.9 0.0 0.00 0.00 0.00 70 1015.0
20260507000100 12 280 12.9 0.0 0.00 0.00 0.00 70 1015.0
20260506234500 12 280 12.9 0.0 0.00 0.00 0.00 70 1015.0
20260506232859 13 280 12.9 0.0 0.00 0.00 0.00 70 1014.0
20260506231259 13 280 12.9 0.0 0.00 0.00 0.00 70 1014.0
20260506225658 14 280 12.9 0.0 0.00 0.00 0.00 70 1014.0
20260506224058 15 280 12.9 0.0 0.00 0.00 0.00 70 1013.0
20260506222457 15 280 12.9 0.0 0.00 0.00 0.00 69 1012.0
20260506220857 16 280 12.9 0.0 0.00 0.00 0.00 69 1012.0
20260506215256 16 280 12.9 0.0 0.00 0.00 0.00 69 1012.0
20260506213655 17 280 12.9 0.0 0.00 0.00 0.00 69 1012.0
20260506212054 17 280 12.9 0.0 0.00 0.00 0.00 69 1011.0
20260506210453 17 280 12.9 0.0 0.00 0.00 0.00 69 1011.0
20260506204852 17 280 12.9 0.0 0.00 0.00 0.00 69 1011.0
20260506203250 18 280 12.9 0.0 0.00 0.00 0.00 69 1011.0
20260506201650 18 280 12.9 0.0 0.00 0.00 0.00 69 1011.0
20260506200049 19 280 12.9 0.0 0.00 0.00 0.00 69 1011.0
20260506194449 20 280 12.9 0.0 0.00 0.00 0.00 69 1011.0
20260506192848 20 280 12.9 0.0 0.00 0.00 0.00 69 1012.0
20260506191246 20 280 12.9 0.0 0.00 0.00 0.00 69 1012.0
20260506185641 20 320 12.9 0.0 0.00 0.00 0.00 69 1012.0
20260506184040 20 320 12.9 0.0 0.00 0.00 0.00 69 1012.0
20260506182440 17 290 12.9 0.0 0.00 0.00 0.00 76 1013.0
20260506180839 18 290 12.9 0.0 0.00 0.00 0.00 76 1013.0
20260506175239 18 290 12.9 0.0 0.00 0.00 0.00 76 1013.0
20260506173636 18 290 12.9 0.0 0.00 0.00 0.00 76 1013.0
20260506172035 18 290 12.9 0.0 0.00 0.00 0.00 76 1014.0